Flag for U.S.A. Weather past 2 weeks in Salinas, California, U.S.A.

Now
53 °F

Clear.


Feels Like: 53 °F
Forecast: 49 / 65 °F
Wind: 3 mph from Northwest

Location: Salinas Municipal Airport

Current Time: Mar 31, 2015 at 8:45:08 AM

Latest Report: Mar 31, 2015 at 7:53 AM


Visibility: 9 mi

Pressure: 30.17 "Hg

Humidity: 80%

Dew point: 47 °F

Location of SalinasLocation

Historic Weather in Salinas — Graph

°F

Salinas temperature yesterday

Maximum temperature yesterday: 69 °F (at 1:53 PM)
Minimum temperature yesterday: 46 °F (at 5:53 AM)
Average temperature yesterday: 58 °F

Past Weeks' High & Low Weather Summary

 TemperatureHumidityPressure
High88 °F (Mar 26, 1:53 PM)96% (Mar 28, 7:53 AM)30.34 "Hg (Mar 28, 7:53 AM)
Low46 °F (Mar 30, 5:53 AM)22% (Mar 26, 1:53 PM)29.98 "Hg (Mar 16, 4:53 PM)
Average60 °F67%30.15 "Hg
* Reported Mar 16 7:53 AM — Mar 31 7:53 AM, Salinas, Weather by CustomWeather, © 2015

Note: Actual official high and low records may vary slightly from our data, if they occured in-between our weather recording intervals... More about our weather records

Advertising

Salinas weather history for previous 24 hours

 ConditionsComfort  
Time TempWeatherWind HumidityBarometerVisibility
7:53 AM
Tue, Mar 31
53 °FClear.3 mph80%30.17 "Hg9 mi
6:53 AM51 °FPassing clouds.5 mph80%30.16 "Hg10 mi
5:53 AM53 °FPassing clouds.5 mph80%30.14 "Hg10 mi
5:03 AM54 °FPassing clouds.5 mph77%30.11 "Hg10 mi
4:53 AM54 °FPassing clouds.5 mph77%30.13 "Hg10 mi
3:53 AM54 °FClear.3 mph77%30.13 "Hg10 mi
2:53 AM53 °FClear.6 mph77%30.13 "Hg10 mi
1:53 AM55 °FClear.7 mph74%30.13 "Hg10 mi
12:53 AM57 °FClear.5 mph69%30.13 "Hg10 mi
11:53 PM
Mon, Mar 30
56 °FClear.12 mph75%30.13 "Hg10 mi
10:53 PM57 °FClear.10 mph72%30.13 "Hg10 mi
9:53 PM57 °FClear.7 mph69%30.13 "Hg10 mi
8:53 PM57 °FClear.8 mph72%30.11 "Hg10 mi
7:53 PM59 °FSunny.7 mph64%30.09 "Hg10 mi
6:53 PM60 °FSunny.9 mph65%30.08 "Hg10 mi
5:53 PM61 °FSunny.13 mph62%30.08 "Hg10 mi
4:53 PM62 °FSunny.13 mph62%30.09 "Hg10 mi
3:53 PM63 °FSunny.16 mph63%30.08 "Hg9 mi
2:53 PM66 °FSunny.16 mph56%30.07 "Hg9 mi
1:53 PM69 °FSunny.13 mph51%30.07 "Hg10 mi
12:53 PM68 °FSunny.10 mph51%30.09 "Hg9 mi
11:53 AM67 °FSunny.9 mph49%30.10 "Hg10 mi
10:53 AM66 °FSunny.3 mph45%30.10 "Hg10 mi
9:53 AM62 °FSunny.3 mph52%30.09 "Hg10 mi
8:53 AM56 °FSunny.3 mph62%30.08 "Hg10 mi
Weather by CustomWeather, © 2015

See weather overviewHow to use our weather pages